Preview of NWS' New Version of Forecast
This preview is not operational and should not be used for support decisions.

Regional Weather Roundup (RWR)

Issued by Gray - Portland, ME (GYX)

                            
758 
ASUS41 KGYX 181810
RWRGYX
WEATHER ROUNDUP FOR MAINE AND NEW HAMPSHIRE
NATIONAL WEATHER SERVICE GRAY ME
100 PM EST SUN FEB 18 2018

MEZ002-005-006-010-012-015-018-020-021-024-026-027-029-181900-
MAINE
  
CITY           SKY/WX    TMP DP  RH WIND       PRES   REMARKS
PORTLAND       FAIR      38  21  50 NW14G25   30.17R                  
6HR MIN TEMP:  29; 6HR MAX TEMP:  38; 6HR PCP:  0.01;                

SANFORD        FAIR      38  21  50 NW10G17   30.14F                  
BAR HARBOR     PTSUNNY   35  26  69 N12G20    30.12R                  
WISCASSET      FAIR      38  23  55 MISG      30.16R                  
6HR MIN TEMP:  29; 6HR MAX TEMP:  38; 6HR PCP:  0.04;                

ROCKLAND       FAIR      37  26  64 VRB5G16   30.12R                  
FRYEBURG       FAIR      38  20  48 NW14G24   30.14F                  
6HR MIN TEMP:  24; 6HR MAX TEMP:  38; 6HR PCP: TRACE;                

LEWISTONAUBURN PTSUNNY   36  19  50 N20       30.14R                  
AUGUSTA        FAIR      36  20  52 N20G31    30.14R                  
6HR MIN TEMP:  25; 6HR MAX TEMP:  36; 6HR PCP:  0.01;                

WATERVILLE     CLOUDY    36  22  56 N13       30.09R                  
BANGOR         PTSUNNY   36  23  59 NW23      30.12R                  
6HR MIN TEMP:  26; 6HR MAX TEMP:  36; 6HR PCP:  0.04;                

GREENVILLE       N/A     28  18  66 NW17G26   30.04R WCI  16          
6HR MIN TEMP:  20; 6HR MAX TEMP:  29; 6HR PCP:  0.02;                

MILLINOCKET    FAIR      32  20  61 W10G24    30.10S                  
6HR MIN TEMP:  21; 6HR MAX TEMP:  33; 6HR PCP: TRACE;                

HOULTON        CLOUDY    32  22  66 NW8       30.06R                  
6HR MIN TEMP:  20; 6HR MAX TEMP:  32; 6HR PCP:  0.03;                

PRESQUE ISLE   CLOUDY    33  18  53 W16       30.05S                  
6HR MIN TEMP:  18; 6HR MAX TEMP:  34; 6HR PCP:  0.01;                

FRENCHVILLE    FAIR      29  16  58 W13G22    30.00F WCI  19          
6HR MIN TEMP:  15; 6HR MAX TEMP:  29; 6HR PCP: TRACE;                

CARIBOU        CLOUDY    32  17  54 NW12G18   30.03R                  
6HR MIN TEMP:  19; 6HR MAX TEMP:  33; 6HR PCP: TRACE;                

$$

NHZ002-005-008-009-011-012-014-181900-
NEW HAMPSHIRE
  
CITY           SKY/WX    TMP DP  RH WIND       PRES   REMARKS
PORTSMOUTH     MOSUNNY   37  21  51 NW17G26   30.14F                  
ROCHESTER      FAIR      37  22  54 NW17G25   30.13F                  
6HR MIN TEMP:  28; 6HR MAX TEMP:  37; 6HR PCP: TRACE;                

NASHUA         FAIR      39  22  50 NW15G30   30.20R                  
MANCHESTER     FAIR      39  21  48 NW17G29   30.17F                  
6HR MIN TEMP:  28; 6HR MAX TEMP:  39;                                

CONCORD        FAIR      37  22  54 NW15G29   30.17F                  
6HR MIN TEMP:  25; 6HR MAX TEMP:  37;                                

LACONIA        LGT RAIN  34  19  54 NW13G18   30.16F                  
PLYMOUTH       PTSUNNY   35  20  53 NW15G22   30.17F HAZE             
BERLIN         CLOUDY    31  20  63 NW9       30.16S                  
6HR MIN TEMP:  19; 6HR MAX TEMP:  32; 6HR PCP: TRACE;                

WHITEFIELD     CLOUDY    30  22  72 W8        30.18F                  
6HR MIN TEMP:  24; 6HR MAX TEMP:  30; 6HR PCP: TRACE;                

JAFFREY        FAIR      38  21  50 NW8G23    30.17R                  
6HR MIN TEMP:  27; 6HR MAX TEMP:  38; 6HR PCP: TRACE;                

KEENE          FAIR      41  20  43 NW10G18   30.21R                  
LEBANON        PTSUNNY   37  21  52 NW9G20    30.19F                  
6HR MIN TEMP:  18; 6HR MAX TEMP:  38; 6HR PCP: TRACE;                

MT WASHINGTON  NOT AVBL                                               
$$

VTZ005-007-008-181900-
VERMONT
  
CITY           SKY/WX    TMP DP  RH WIND       PRES   REMARKS
ST JOHNSBURY     N/A     33  23  66 MISG      30.16F                  
MONTPELIER     FAIR      31  22  69 NW9       30.20F                  
BURLINGTON     CLOUDY    35  22  58 NW9       30.24R                  
$$

MAZ007-012-024-CTZ003-RIZ002-NYZ038-NYZ072-181900-
SOUTHERN NEW ENGLAND AND NY
  
CITY           SKY/WX    TMP DP  RH WIND       PRES   REMARKS
BOSTON         FAIR      40  26  57 NW15      30.20R                  
WORCESTER      FAIR      37  22  54 W17       30.19R                  
NANTUCKET      FAIR      40  30  67 N18G29    30.21R                  
PROVIDENCE     FAIR      42  23  46 NW9       30.24R                  
HARTFORD       FAIR      39  23  52 NW14G26   30.27R                  
ALBANY         CLOUDY    36  25  64 NW12      30.31R                  
NEW YORK CITY  FAIR      44  23  43 NW13      30.34R                  
$$

ANZ081-ANZ082-ANZ150-NHZ014-MEZ023>029-181900-
COASTAL MARINE OBSERVATIONS
  
STATION/POSITION TIME  TEMP    WIND        PRES    WAVE
                       AIR SEA DIR/SP/G            HT/PER
                 (UTC) (F)     (DEG/KT/KT) (MB)    (FT/S)
MOUNT DESERT ROC 1800   34     320/ 22/ 24 1019.7R
MATINICUS ROCK   1800   36     330/ 19/ 20 1019.3R
ISLE OF SHOALS   1800   37     340/ 15/ 17 1021.0F
JEFFREYS LEDGE   1736      41                N/A     5/ 7
GEORGES BANK BUO 1650   39 47              1015.4    8/ 6
$$

.............KEY..............
   WCI - WIND CHILL
   TC  - TEMPERATURE IN CELSIUS
   VSB - VISIBILITY IN MILES
   HX  - HEAT INDEX
   FAIR- INDICATES FEW OR NO CLOUDS BELOW 12,000 FT, WITH NO 
         SIGNIFICANT WEATHER AND/OR OBSTRUCTIONS TO VISIBILITY.